Location: Altleiningen
(49.5078°N, 8.0741°E)
Time: 04:19:07
(UTC+00:00)

Ariane Rocket - Visible Passes

Search period start: 15 June 2021 00:00
Search period end: 25 June 2021 00:00
Orbit: 761 x 769 km, 98.7° (Epoch: 14 June)

Date Brightness Start Highest point End Pass type
(mag) Time Alt. Az. Time Alt. Az. Time Alt. Az.
15 Jun 5.3 20:52:25 10° SW 20:56:09 20° W 20:59:55 10° NW visible
16 Jun 4.3 20:14:13 10° SSW 20:19:00 40° W 20:23:49 10° NNW visible
17 Jun 5.6 21:19:44 10° WSW 21:21:50 12° W 21:23:56 10° WNW visible
18 Jun 5.0 20:40:21 10° SSW 20:44:32 25° W 20:48:44 10° NW visible
20 Jun 5.5 21:07:07 10° SW 21:10:10 16° W 21:13:14 10° NW visible
21 Jun 4.7 20:28:25 10° SSW 20:32:56 31° W 20:37:29 10° NNW visible
23 Jun 5.3 20:54:51 10° SW 20:58:31 20° W 21:02:13 10° NW visible
24 Jun 4.3 20:16:36 10° SSW 20:21:21 39° W 20:26:09 10° NNW visible
